N1DNE Weather Reports


Display with metric or nautical units.
time (UTC)temp
F
wind
direction
speed
MPH
gust
MPH
rain 1hr
in
rain 24hr
in
rain mn
in
humidity
%
barometer
mb
20260503032604 47 28 2.0 4.0 0.00 0.05 0.05 59 1009.3
20260503031602 48 17 2.0 5.0 0.00 0.05 0.05 58 1009.3
20260503030603 48 36 1.0 4.0 0.00 0.05 0.05 58 1009.3
20260503025603 48 15 2.0 4.0 0.00 0.05 0.05 58 1009.5
20260503024603 48 345 2.0 6.0 0.00 0.05 0.05 56 1009.5
20260503024035 48 54 2.0 3.0 0.00 0.05 0.05 57 1009.6
20260503022605 49 28 1.0 3.0 0.00 0.05 0.05 57 1009.6
20260503021605 49 33 1.0 3.0 0.00 0.05 0.05 56 1009.7
20260503020606 49 33 1.0 4.0 0.00 0.05 0.05 55 1009.6
20260503015601 49 5 2.0 6.0 0.00 0.05 0.05 55 1009.6
20260503015043 50 332 2.0 5.0 0.00 0.05 0.05 54 1009.4
20260503013603 50 30 1.0 3.0 0.00 0.05 0.05 54 1009.5
20260503012602 50 5 1.0 5.0 0.00 0.05 0.05 54 1009.5
20260503011603 50 9 1.0 3.0 0.00 0.05 0.05 54 1009.4
20260503011040 51 26 1.0 4.0 0.00 0.05 0.05 53 1009.4
20260503005559 51 22 1.0 2.0 0.00 0.05 0.05 53 1009.2
20260503004559 52 22 1.0 3.0 0.00 0.05 0.05 53 1009.1
20260503003553 52 21 1.0 3.0 0.00 0.05 0.05 52 1009.0
20260503002553 53 23 2.0 5.0 0.00 0.05 0.05 52 1008.9
20260503001552 53 340 1.0 4.0 0.00 0.05 0.05 51 1008.8
20260503001037 53 324 2.0 4.0 0.00 0.05 0.05 51 1008.6
20260502235553 54 0 2.0 3.0 0.00 0.05 0.05 52 1008.4
20260502234553 54 351 1.0 4.0 0.00 0.05 0.05 53 1008.4
20260502234028 54 49 0.0 2.0 0.00 0.05 0.05 59 1008.5
20260502232553 55 49 1.0 2.0 0.00 0.05 0.05 57 1008.3
20260502231555 55 50 0.0 3.0 0.00 0.05 0.05 55 1008.2
20260502230548 55 74 0.0 1.0 0.00 0.05 0.05 58 1008.3
20260502225547 55 74 0.0 3.0 0.00 0.05 0.05 57 1008.3
20260502224546 55 28 1.0 3.0 0.00 0.05 0.05 56 1008.3
20260502223547 55 27 1.0 2.0 0.00 0.05 0.05 55 1008.1
20260502223022 56 27 1.0 3.0 0.00 0.05 0.05 55 1008.1
20260502221548 56 317 2.0 4.0 0.00 0.05 0.05 56 1008.0
20260502220547 56 355 1.0 2.0 0.00 0.05 0.05 57 1007.8
20260502215548 56 355 2.0 4.0 0.00 0.05 0.05 57 1007.8
20260502214547 57 33 1.0 4.0 0.00 0.05 0.05 59 1007.8
20260502213542 57 24 0.0 2.0 0.00 0.05 0.05 61 1007.7
20260502213515 57 25 1.0 2.0 0.00 0.05 0.05 57 1007.6
20260502212017 57 17 1.0 3.0 0.00 0.05 0.05 55 1007.5
20260502210541 57 17 1.0 3.0 0.00 0.05 0.05 57 1007.5
20260502205541 57 17 1.0 5.0 0.00 0.05 0.05 57 1007.6
20260502204542 57 260 1.0 3.0 0.00 0.05 0.05 58 1007.7
20260502203541 57 243 1.0 4.0 0.00 0.05 0.05 61 1007.7
20260502202540 57 81 1.0 3.0 0.00 0.05 0.05 60 1007.8
20260502201543 57 0 1.0 3.0 0.00 0.05 0.05 61 1007.9
20260502200536 56 0 1.0 4.0 0.00 0.05 0.05 62 1008.0
20260502195535 56 333 1.0 3.0 0.00 0.05 0.05 61 1008.2
20260502194534 56 74 1.0 4.0 0.00 0.05 0.05 62 1008.4
20260502193537 56 350 1.0 4.0 0.00 0.05 0.05 63 1008.5
20260502192532 55 42 1.0 4.0 0.00 0.05 0.05 64 1008.6
20260502191534 55 52 1.0 3.0 0.00 0.05 0.05 68 1008.8
20260502191011 55 339 2.0 5.0 0.00 0.05 0.05 67 1009.0
20260502185532 55 208 1.0 4.0 0.00 0.05 0.05 71 1009.1
20260502184531 54 50 1.0 3.0 0.00 0.05 0.05 70 1009.1
20260502183530 53 338 1.0 3.0 0.00 0.05 0.05 73 1009.3
20260502182012 52 26 1.0 4.0 0.01 0.05 0.05 76 1009.3
20260502180531 52 72 1.0 4.0 0.01 0.05 0.05 80 1009.2
20260502163527 51 355 2.0 4.0 0.00 0.04 0.04 87 1009.2
20260502162527 52 316 1.0 5.0 0.00 0.04 0.04 85 1009.3
20260502162008 53 306 2.0 4.0 0.00 0.04 0.04 82 1009.1
20260502160520 55 311 2.0 4.0 0.00 0.04 0.04 77 1009.1
20260502151520 54 167 2.0 6.0 0.00 0.04 0.04 78 1009.4
20260502150521 54 166 2.0 5.0 0.00 0.04 0.04 79 1009.4
20260502130508 50 169 0.0 2.0 0.00 0.04 0.04 91 1009.7
20260502123508 49 169 1.0 4.0 0.01 0.04 0.04 95 1009.9
20260502122508 49 169 0.0 1.0 0.01 0.04 0.04 95 1009.9
20260502121508 48 169 0.0 0.0 0.01 0.04 0.04 94 1010.0
20260502120508 48 169 0.0 1.0 0.01 0.04 0.04 94 1010.3
20260502115507 48 169 0.0 2.0 0.01 0.04 0.04 94 1010.2
20260502114508 48 169 0.0 2.0 0.01 0.04 0.04 94 1010.2
20260502113502 48 170 0.0 1.0 0.01 0.03 0.03 94 1010.0
20260502112504 48 170 0.0 2.0 0.01 0.03 0.03 94 1009.8
20260502111502 48 169 0.0 2.0 0.01 0.03 0.03 94 1010.0
20260502110500 48 169 0.0 1.0 0.01 0.03 0.03 94 1010.1
20260502105502 48 169 0.0 1.0 0.01 0.03 0.03 94 1010.3
20260502104501 48 169 0.0 2.0 0.02 0.03 0.03 94 1010.2
20260502103500 48 170 0.0 4.0 0.01 0.02 0.02 94 1010.4
20260502102944 48 169 0.0 1.0 0.01 0.02 0.02 94 1010.0
20260502101500 48 169 0.0 1.0 0.01 0.02 0.02 94 1009.6
20260502100501 48 169 0.0 2.0 0.01 0.02 0.02 93 1009.4
20260502091457 48 170 0.0 1.0 0.00 0.01 0.01 93 1009.5
20260502090457 48 170 0.0 1.0 0.00 0.01 0.01 93 1009.5
20260502071454 49 170 0.0 1.0 0.00 0.00 0.00 89 1009.2
20260502070453 49 169 0.0 1.0 0.00 0.00 0.00 87 1009.0
20260502065453 50 170 0.0 1.0 0.00 0.00 0.00 86 1009.5
20260502064927 50 169 0.0 1.0 0.00 0.00 0.00 85 1009.3
20260502063452 50 170 0.0 0.0 0.00 0.00 0.00 83 1009.3
20260502062931 50 170 0.0 2.0 0.00 0.00 0.00 82 1009.5
20260502061447 50 170 0.0 2.0 0.00 0.00 0.00 81 1009.2
20260502060447 50 170 0.0 2.0 0.00 0.00 0.00 81 1009.5
20260502055445 50 170 0.0 0.0 0.00 0.00 0.00 80 1009.6
20260502054444 51 170 0.0 1.0 0.00 0.00 0.00 80 1009.7
20260502053442 51 169 0.0 0.0 0.00 0.00 0.00 80 1009.5
20260502052921 51 170 0.0 0.0 0.00 0.00 0.00 79 1009.4
20260502051444 51 170 0.0 1.0 0.00 0.00 0.00 79 1009.6
20260502050444 51 170 0.0 0.0 0.00 0.00 0.00 78 1009.7
20260502045443 51 169 0.0 0.0 0.00 0.00 0.00 78 1009.6
20260502044438 51 169 0.0 2.0 0.00 0.00 0.00 77 1009.7
20260502043436 51 170 0.0 0.0 0.00 0.00 0.00 77 1009.6
20260502042435 51 170 0.0 0.0 0.00 0.00 0.00 77 1009.7
20260502041435 52 170 0.0 0.0 0.00 0.00 0.00 77 1009.6
20260502040435 52 170 0.0 0.0 0.00 0.00 0.00 76 1009.5
20260502035433 52 170 0.0 0.0 0.00 0.00 0.00 74 1009.6
20260502034433 52 170 0.0 1.0 0.00 0.00 0.00 74 1009.6
20260502033432 52 169 0.0 1.0 0.00 0.00 0.00 74 1009.6